Weather History for Seward, AK

Change the Weather History Date:

Monday, May 14, 2012

  Actual Average Record
Temperature  
Mean Temperature 40 °F -  
Max Temperature 48 °F 52 °F 72 °F (2014)
Min Temperature 35 °F 38 °F 30 °F (1965)
Degree Days  
Heating Degree Days 24    
Moisture  
Dew Point 30 °F    
Average Humidity 69    
Maximum Humidity 85    
Minimum Humidity 50    
Precipitation  
Precipitation 0.03 in - - ()
Sea Level Pressure  
Sea Level Pressure 30.06 in    
Wind  
Wind Speed 9 mph (ENE)    
Max Wind Speed 17 mph    
Max Gust Speed 29 mph    
Visibility 10 miles    
Events Rain , Snow    
Averages and records for this station are not official NWS values.
T = Trace of Precipitation, MM = Missing Value Source: NWS Daily Summary

Daily Weather History Graph

Daily Weather History Graph

Search for Another Location

Airport:

Trip Planner

Search our weather history database for the weather conditions in past years. The results will help you decide how hot, cold, wet, or windy it might be!

Date:

Astronomy

May. 14, 2012 Rise Set
Actual Time 5:19 AM AKDT 10:30 PM AKDT
Civil Twilight 4:15 AM AKDT 11:34 PM AKDT
Nautical Twilight 2:26 AM AKDT 1:21 AM AKDT
Astronomical Twilight Sun does not rise Sun does not rise
Moon 3:29 AM AKDT (5/14) 3:37 PM AKDT (5/14)
Length of Visible Light 19h 18m
Length of Day
17h 10m
Waning Crescent, 31% of the Moon is Illuminated
May 14
Waning Crescent
May 20
New
May 28
First Quarter
Jun 4
Full
Jun 11
Last Quarter

Hourly Weather History & Observations

Time (AKDT) Temp. Windchill Dew Point Humidity Pressure Visibility Wind Dir Wind Speed Gust Speed Precip Events Conditions
12:53 AM 39.9 °F 31.8 °F 27.0 °F 60% 29.90 in 10.0 mi North 15.0 mph 24.2 mph 0.00 in   Overcast
1:53 AM 37.0 °F 28.5 °F 30.0 °F 76% 29.91 in 10.0 mi NNE 13.8 mph 28.8 mph N/A   Overcast
2:53 AM 37.0 °F 28.5 °F 30.0 °F 76% 29.91 in 10.0 mi NE 13.8 mph 26.5 mph 0.00 in   Overcast
3:53 AM 37.0 °F 27.4 °F 30.9 °F 79% 29.92 in 10.0 mi NE 17.3 mph 23.0 mph 0.00 in   Overcast
4:44 AM 37.4 °F 30.3 °F 30.2 °F 75% 29.94 in 10.0 mi NNE 10.4 mph - 0.00 in Rain Light Rain
4:53 AM 36.0 °F 29.6 °F 30.9 °F 82% 29.95 in 9.0 mi North 8.1 mph - 0.02 in Rain Light Rain
5:20 AM 35.6 °F 31.7 °F 30.2 °F 81% 29.95 in 10.0 mi NNW 4.6 mph - 0.00 in   Overcast
5:53 AM 35.1 °F 26.9 °F 30.9 °F 85% 29.98 in 6.0 mi South 11.5 mph - 0.01 in Snow Light Snow
6:53 AM 35.1 °F 30.1 °F 30.9 °F 85% 30.01 in 9.0 mi Variable 5.8 mph - 0.00 in   Overcast
7:53 AM 36.0 °F 33.3 °F 30.9 °F 82% 30.04 in 10.0 mi SE 3.5 mph - N/A   Overcast
8:51 AM 37.4 °F 33.8 °F 30.2 °F 75% 30.04 in 10.0 mi SE 4.6 mph - N/A   Overcast
8:53 AM 37.9 °F - 30.9 °F 76% 30.04 in 10.0 mi Calm Calm - N/A   Overcast
9:53 AM 39.0 °F - 32.0 °F 76% 30.06 in 10.0 mi Calm Calm - N/A   Overcast
10:51 AM 41.0 °F 37.1 °F 28.4 °F 61% 30.08 in 10.0 mi SSE 5.8 mph - N/A   Mostly Cloudy
10:53 AM 41.0 °F 39.0 °F 28.9 °F 62% 30.08 in 10.0 mi Variable 3.5 mph - N/A   Mostly Cloudy
11:53 AM 41.0 °F 37.1 °F 30.0 °F 65% 30.08 in 10.0 mi SSE 5.8 mph - N/A   Overcast
12:53 PM 42.1 °F 37.1 °F 30.9 °F 65% 30.11 in 10.0 mi NE 8.1 mph - 0.00 in   Overcast
1:53 PM 44.1 °F 41.5 °F 28.9 °F 55% 30.11 in 10.0 mi NE 4.6 mph - N/A   Overcast
2:53 PM 44.1 °F 42.5 °F 28.0 °F 53% 30.12 in 10.0 mi NE 3.5 mph - N/A   Overcast
3:53 PM 46.9 °F - 28.9 °F 50% 30.12 in 10.0 mi NE 4.6 mph - N/A   Overcast
4:53 PM 45.0 °F 42.6 °F 28.0 °F 52% 30.13 in 10.0 mi Variable 4.6 mph - N/A   Overcast
5:53 PM 46.0 °F 42.5 °F 28.9 °F 51% 30.14 in 10.0 mi South 6.9 mph - N/A   Overcast
6:53 PM 45.0 °F 42.6 °F 28.9 °F 53% 30.14 in 10.0 mi South 4.6 mph - N/A   Clear
7:53 PM 44.1 °F 40.1 °F 30.0 °F 58% 30.15 in 10.0 mi South 6.9 mph - N/A   Scattered Clouds
8:53 PM 43.0 °F 41.3 °F 30.9 °F 62% 30.17 in 10.0 mi SSE 3.5 mph - N/A   Mostly Cloudy
9:53 PM 42.1 °F - 32.0 °F 67% 30.18 in 10.0 mi Calm Calm - N/A   Clear
10:53 PM 37.0 °F 33.3 °F 30.9 °F 79% 30.19 in 10.0 mi North 4.6 mph - N/A   Clear
11:53 PM 35.1 °F - 30.0 °F 82% 30.21 in 10.0 mi Calm Calm - N/A   Clear